[[{"header":{"parameterUnit":"m.s-1","parameterCategory":1,"la1":30.2991,"la2":30.254,"lo1":-89.0895,"lo2":-89.0444,"dy":0.0017,"dx":0.0017,"nx":28,"ny":28,"refTime":"2025-07-28T03:00:00:Z","depth":0,"parameterNumber":2,"parameterNumberName":"U-component_of_WINDS"},"data":[0,0,0,0,0,0,0,0,0,0,0,0,0,0,0,0,0,0,0,0,0,0,0,0,0,0,0,0,0,0,0,0,0,0,0,0,0,0,0,0,0,0,0,0,0,0,0,0,0,0,0,0,0,0,0,0,0,0,1.7756,1.7758,0,1.7894,1.7896,1.7897,1.7941,1.7941,1.794,1.7939,1.8081,1.8086,1.809,0,0,0,0,0,0,0,0,0,0,0,0,0,1.7531,1.7535,1.7756,1.7758,1.776,1.7894,1.7896,1.7898,1.7941,1.7941,1.794,1.7939,1.808,1.8085,1.809,0,0,0,0,0,0,0,0,0,0,0,0,0,1.7645,1.7537,1.7756,1.7798,1.7803,1.7894,1.7896,1.7898,1.7942,1.7941,1.794,1.7939,1.8078,1.8085,1.8091,1.8151,0,0,1.8111,1.8114,0,0,0,0,0,0,0,0,1.7639,1.7653,1.779,1.7795,1.7801,1.79,1.7869,1.7983,1.7942,1.7889,1.7939,1.7938,1.8022,1.8033,1.8061,1.8157,1.8163,1.8112,1.8116,1.8119,1.812,0,0,0,0,0,0,0,1.7631,1.7648,1.7811,1.7792,1.7799,1.781,1.7825,1.7891,1.7959,1.7893,1.7897,1.7913,1.8025,1.8054,1.8065,1.8166,1.8112,1.8117,1.8122,1.8124,1.8318,1.8319,0,0,0,0,0,0,1.7616,1.7641,1.7807,1.7815,1.7716,1.7814,1.7831,1.7869,1.7958,1.7971,1.7913,1.7914,1.8044,1.8057,1.807,1.8145,1.8119,1.8125,1.8128,1.8317,1.8318,1.8319,0,0,0,0,0,0,1.7611,1.763,1.7801,1.7729,1.7752,1.7819,1.7861,1.7872,1.7902,1.7973,1.7986,1.7931,1.8044,1.8061,1.813,1.8151,1.8128,1.8134,1.8315,1.8317,1.8319,1.8296,0,0,0,0,0,0,1.7604,1.7628,1.7651,1.7729,1.7755,1.7859,1.7862,1.7875,1.7913,1.7915,1.7994,1.8006,1.8044,1.812,1.8137,1.8159,1.8139,1.8314,1.8316,1.8318,1.8295,1.8297,1.8298,0,0,0,0,0,1.7596,1.7639,1.7652,1.7672,1.7785,1.786,1.7875,1.7918,1.7915,1.7938,1.7984,1.8003,1.8146,1.8127,1.8146,1.8171,1.8313,1.8315,1.8318,1.8295,1.8297,1.8298,0,0,0,0,0,0,1.7562,1.765,1.7665,1.7735,1.779,1.7867,1.7898,1.7919,1.7975,1.7975,1.8027,1.8044,1.811,1.8148,1.8125,1.8233,1.823,1.8237,1.8206,1.8208,1.821,1.8199,1.8144,0,0,0,0,0,1.7563,1.7616,1.769,1.7745,1.7771,1.783,1.7864,1.7893,1.7951,1.7974,1.8025,1.8082,1.8139,1.8176,1.8233,1.8301,1.8319,1.8328,1.8329,1.833,1.8335,1.8374,1.8379,1.8328,1.8328,1.8328,0,0,1.7565,1.762,1.765,1.7739,1.7785,1.7838,1.7849,1.7905,1.7946,1.7983,1.8052,1.8091,1.8157,1.8226,1.8259,1.826,1.8353,1.8334,1.8334,1.8338,1.8377,1.8382,1.8386,1.833,1.833,1.833,0,0,1.7596,1.7643,1.7693,1.7738,1.7807,1.7846,1.7858,1.7933,1.796,1.803,1.8059,1.8108,1.8206,1.8252,1.8288,1.8336,1.8356,1.8354,1.8361,1.8398,1.8402,1.8406,1.8423,1.8428,1.8358,1.8358,1.8358,0,1.7589,1.7671,1.7717,1.7772,1.781,1.7846,1.7898,1.794,1.8023,1.8049,1.8048,1.8172,1.8219,1.8299,1.8311,1.8339,1.8355,1.8345,1.8398,1.8402,1.8406,1.8423,1.8429,1.8358,1.8358,1.8358,1.8358,0,1.766,1.7716,1.7749,1.7829,1.7871,1.7924,1.7977,1.8015,1.804,1.8079,1.8149,1.8207,1.8276,1.8298,1.8323,1.8382,1.838,1.8388,1.8386,1.841,1.8426,1.8433,1.8357,1.8357,1.8357,1.8357,0,0,1.7673,1.7777,1.7788,1.7825,1.7903,1.7948,1.8002,1.807,1.8101,1.8158,1.8204,1.8287,1.8295,1.8336,1.8367,1.8399,1.8433,1.8404,1.8406,1.8407,1.8501,1.8494,1.8501,1.8447,1.8448,1.8449,1.8496,0,1.7713,1.7812,1.7855,1.7934,1.7987,1.8022,1.807,1.8123,1.8161,1.8211,1.8253,1.8311,1.8317,1.8342,1.8376,1.8422,1.8453,1.8419,1.8491,1.8493,1.8472,1.8509,1.8502,1.8543,1.8502,1.8503,1.8504,0,1.7773,1.783,1.7915,1.7987,1.8011,1.8052,1.8118,1.8165,1.8227,1.8252,1.8298,1.8327,1.8386,1.838,1.8462,1.8438,1.847,1.8497,1.85,1.8507,1.8499,1.8518,1.8557,1.8563,1.8515,1.8514,1.8513,0,1.7773,1.7871,1.7934,1.7965,1.8051,1.8079,1.8116,1.8177,1.8215,1.8272,1.8297,1.836,1.8395,1.8443,1.8489,1.848,1.8566,1.8564,1.8589,1.8587,1.8605,1.8603,1.8649,1.8626,1.8626,1.8626,1.8626,0,1.7814,1.7864,1.7935,1.7974,1.8031,1.808,1.8136,1.8175,1.8229,1.8276,1.8311,1.8354,1.8412,1.8463,1.8499,1.8561,1.8577,1.8599,1.8608,1.8596,1.8593,1.8617,1.8615,1.8628,1.8627,1.8627,1.8627,0,1.7823,1.7873,1.7944,1.802,1.804,1.8079,1.8144,1.8183,1.8223,1.8282,1.8299,1.8361,1.8423,1.8473,1.8554,1.8579,1.8643,1.8654,1.8622,1.8627,1.8648,1.8645,1.8711,1.8722,1.8692,1.8692,1.8692,0,1.7845,1.7885,1.7965,1.7999,1.8035,1.809,1.8129,1.8178,1.8217,1.829,1.832,1.8385,1.8439,1.8536,1.8588,1.8651,1.8663,1.8681,1.8672,1.8658,1.8662,1.8659,1.8663,1.8682,1.8682,1.8682,1.8682,0,1.7879,1.7902,1.7956,1.8019,1.8065,1.8117,1.817,1.8196,1.8255,1.8297,1.8361,1.8403,1.8485,1.8549,1.8616,1.8655,1.8679,1.8685,1.8694,1.8681,1.8661,1.8672,1.8624,1.8683,1.8683,1.8683,1.8683,1.8683,1.7895,1.7932,1.7994,1.8053,1.8098,1.8147,1.8187,1.8232,1.8286,1.8357,1.8383,1.8448,1.8509,1.8603,1.8642,1.8693,1.8696,1.8709,1.8712,1.8714,1.8712,1.8653,1.8706,1.8706,1.8706,1.8706,1.8706,0,1.793,1.7972,1.8026,1.8099,1.8146,1.8164,1.8224,1.8262,1.8318,1.8373,1.8426,1.8498,1.856,1.8618,1.8682,1.8713,1.8725,1.8728,1.8726,1.8734,1.8707,1.8692,1.8717,1.8717,1.8717,1.8717,1.8717,1.8717,1.7953,1.8016,1.8046,1.8132,1.8174,1.8238,1.827,1.8315,1.8359,1.8439,1.849,1.8528,1.8584,1.8653,1.871,1.8725,1.8747,1.8747,1.8765,1.8738,1.8736,1.8735,1.8721,1.8752,1.8752,1.8789,1.8789,1.8789]},{"header":{"parameterUnit":"m.s-1","parameterCategory":1,"la1":30.2991,"la2":30.254,"lo1":-89.0895,"lo2":-89.0444,"dy":0.0017,"dx":0.0017,"nx":28,"ny":28,"refTime":"2025-07-28T03:00:00:Z","depth":0,"parameterNumber":3,"parameterNumberName":"V-component_of_WINDS"},"data":[0,0,0,0,0,0,0,0,0,0,0,0,0,0,0,0,0,0,0,0,0,0,0,0,0,0,0,0,0,0,0,0,0,0,0,0,0,0,0,0,0,0,0,0,0,0,0,0,0,0,0,0,0,0,0,0,0,0,2.3609,2.3608,0,2.3488,2.3486,2.3485,2.3398,2.3398,2.3397,2.3396,2.3266,2.3264,2.3261,0,0,0,0,0,0,0,0,0,0,0,0,0,2.3761,2.3759,2.361,2.3608,2.3607,2.3488,2.3486,2.3485,2.3398,2.3398,2.3397,2.3396,2.3267,2.3264,2.3261,0,0,0,0,0,0,0,0,0,0,0,0,0,2.3673,2.3758,2.361,2.3549,2.3543,2.3488,2.3486,2.3484,2.3399,2.3398,2.3397,2.3396,2.3268,2.3264,2.326,2.3255,0,0,2.3247,2.3245,0,0,0,0,0,0,0,0,2.3678,2.3668,2.356,2.3553,2.3546,2.3457,2.3492,2.3407,2.3399,2.3453,2.3396,2.3395,2.333,2.3321,2.33,2.3248,2.3243,2.3247,2.3244,2.3242,2.3241,0,0,0,0,0,0,0,2.3684,2.3672,2.3561,2.3558,2.355,2.3526,2.3513,2.3476,2.3399,2.3448,2.3442,2.3429,2.3326,2.3305,2.3296,2.3241,2.3247,2.3243,2.3241,2.3239,2.3177,2.3178,0,0,0,0,0,0,2.3701,2.3678,2.3565,2.3557,2.3611,2.3524,2.3509,2.3487,2.3399,2.3385,2.343,2.3425,2.3312,2.3302,2.3292,2.3279,2.3242,2.3238,2.3236,2.3176,2.3177,2.3178,0,0,0,0,0,0,2.3704,2.3692,2.357,2.3616,2.3599,2.3523,2.3498,2.3485,2.3463,2.3385,2.337,2.3422,2.3311,2.3298,2.3264,2.3273,2.3237,2.3233,2.3175,2.3177,2.3178,2.3254,0,0,0,0,0,0,2.3709,2.3693,2.3692,2.3617,2.3597,2.3547,2.3499,2.3483,2.3457,2.3449,2.3374,2.336,2.3309,2.3271,2.326,2.3267,2.3229,2.3174,2.3176,2.3177,2.3251,2.3258,2.3265,0,0,0,0,0,2.3715,2.3717,2.3692,2.3679,2.3594,2.3548,2.3536,2.3479,2.3458,2.3455,2.3404,2.3363,2.3274,2.3269,2.3256,2.3261,2.3173,2.3175,2.3177,2.3248,2.3257,2.3264,0,0,0,0,0,0,2.3794,2.3706,2.3678,2.3656,2.361,2.3533,2.3528,2.349,2.3448,2.3443,2.3371,2.3355,2.3329,2.3291,2.3287,2.325,2.3218,2.3218,2.3276,2.3284,2.3291,2.3301,2.3226,0,0,0,0,0,2.3809,2.3781,2.3705,2.3694,2.3672,2.3604,2.3582,2.3542,2.3491,2.347,2.3417,2.3368,2.3328,2.3304,2.3264,2.3244,2.3226,2.3241,2.3248,2.3254,2.3255,2.3241,2.3247,2.3185,2.3185,2.3185,0,0,2.384,2.3789,2.3775,2.3708,2.3668,2.3639,2.3588,2.356,2.3537,2.3465,2.3431,2.3391,2.333,2.3304,2.329,2.3272,2.3268,2.3257,2.3262,2.3259,2.3244,2.325,2.3255,2.3186,2.3186,2.3186,0,0,2.3881,2.384,2.3826,2.3786,2.3727,2.3681,2.3678,2.3606,2.3577,2.3542,2.3488,2.3458,2.3393,2.3352,2.3322,2.3347,2.3307,2.3336,2.3372,2.336,2.3365,2.3369,2.3377,2.3381,2.3337,2.3337,2.3337,0,2.3926,2.3882,2.3822,2.3797,2.3769,2.3704,2.3688,2.3652,2.3582,2.3563,2.3544,2.346,2.3414,2.3378,2.3384,2.3362,2.3355,2.3345,2.3369,2.3372,2.3375,2.3383,2.3386,2.3341,2.334,2.334,2.3339,0,2.3941,2.3911,2.3906,2.3842,2.3812,2.3792,2.3727,2.3704,2.3667,2.3623,2.3587,2.3531,2.3478,2.3465,2.3427,2.3423,2.3414,2.3383,2.3349,2.3386,2.3392,2.3394,2.3346,2.3345,2.3344,2.3343,0,0,2.4029,2.3932,2.3931,2.3901,2.383,2.3804,2.378,2.373,2.3712,2.3664,2.3641,2.3587,2.3558,2.3525,2.3481,2.347,2.3493,2.344,2.3437,2.3452,2.3484,2.3509,2.3513,2.3466,2.3466,2.3466,2.3489,0,2.4059,2.4015,2.396,2.3933,2.3904,2.3842,2.382,2.3773,2.3732,2.3699,2.3651,2.3614,2.3579,2.3558,2.3545,2.3494,2.3499,2.3491,2.3443,2.3442,2.3461,2.3516,2.3541,2.3566,2.3491,2.3492,2.3492,0,2.4089,2.4048,2.4019,2.395,2.3936,2.3918,2.3867,2.3837,2.3782,2.3752,2.3715,2.3668,2.3638,2.3608,2.3564,2.356,2.3536,2.3508,2.3507,2.3501,2.347,2.3511,2.3572,2.3576,2.3495,2.3495,2.3494,0,2.4157,2.4093,2.4068,2.4043,2.3962,2.3951,2.3917,2.386,2.3834,2.3788,2.377,2.3721,2.3694,2.3656,2.3597,2.3581,2.3559,2.3524,2.3532,2.3534,2.3531,2.3532,2.359,2.3516,2.3516,2.3516,2.3516,0,2.4197,2.4182,2.4097,2.4082,2.4062,2.3998,2.398,2.3939,2.3889,2.3863,2.3805,2.3781,2.3704,2.3671,2.3624,2.3594,2.3582,2.3556,2.3544,2.3562,2.3566,2.3546,2.3543,2.3516,2.3516,2.3516,2.3516,0,2.427,2.4212,2.418,2.4107,2.4088,2.4077,2.4012,2.3994,2.3948,2.3916,2.3904,2.3833,2.379,2.3727,2.3665,2.3634,2.3612,2.3591,2.3631,2.3624,2.3636,2.3636,2.3683,2.3686,2.361,2.3611,2.3612,0,2.4299,2.4287,2.4212,2.4191,2.4159,2.4126,2.4099,2.4035,2.4008,2.3944,2.3933,2.3886,2.3846,2.3781,2.3722,2.3674,2.3652,2.3672,2.3645,2.3663,2.3653,2.3655,2.3653,2.3679,2.368,2.3681,2.3682,0,2.4358,2.433,2.4295,2.4249,2.4218,2.4178,2.4135,2.4121,2.4047,2.402,2.3977,2.3946,2.3883,2.3838,2.3782,2.3743,2.37,2.3691,2.369,2.3709,2.3733,2.372,2.365,2.369,2.3689,2.3689,2.3688,2.3688,2.441,2.4396,2.4341,2.4303,2.4264,2.4225,2.4205,2.4157,2.4121,2.4067,2.403,2.3989,2.3932,2.3853,2.3817,2.3782,2.3764,2.3763,2.3763,2.3764,2.377,2.3738,2.3772,2.3771,2.3771,2.3771,2.377,0,2.4466,2.4428,2.4394,2.4336,2.4306,2.4269,2.422,2.4196,2.4162,2.4113,2.4075,2.4025,2.398,2.3918,2.3868,2.3852,2.3831,2.3841,2.3842,2.3834,2.3789,2.3795,2.3859,2.3859,2.3859,2.3859,2.3859,2.3859,2.4492,2.4466,2.4432,2.4385,2.4346,2.4307,2.4282,2.4245,2.4207,2.4155,2.4118,2.4078,2.4023,2.3969,2.3926,2.3908,2.3892,2.3909,2.3886,2.3845,2.3837,2.3829,2.3834,2.3906,2.3906,2.3933,2.3933,2.3933]}]]